| time (UTC) | temp F | wind direction | speed MPH | gust MPH | rain 1hr in | rain 24hr in | rain mn in | humidity % | barometer mb |
| 20260903222017 | 77 | 114 | 1.0 | 3.0 | 0.00 | 0.07 | 0.07 | 78 | 1012.0 |
| 20260903221018 | 77 | 59 | 0.0 | 2.0 | 0.00 | 0.07 | 0.07 | 80 | 1012.1 |
| 20260903220021 | 77 | 88 | 0.0 | 2.0 | 0.00 | 0.07 | 0.07 | 80 | 1012.0 |
| 20260903215020 | 76 | 105 | 1.0 | 2.0 | 0.00 | 0.07 | 0.07 | 80 | 1011.9 |
| 20260903214017 | 76 | 27 | 0.0 | 1.0 | 0.00 | 0.07 | 0.07 | 80 | 1011.9 |
| 20260903213018 | 77 | 127 | 1.0 | 3.0 | 0.00 | 0.07 | 0.07 | 79 | 1011.7 |
| 20260903212018 | 78 | 126 | 1.0 | 3.0 | 0.00 | 0.07 | 0.07 | 76 | 1011.7 |
| 20260903211018 | 77 | 286 | 0.0 | 1.0 | 0.00 | 0.07 | 0.07 | 78 | 1011.8 |
| 20260903210039 | 77 | 135 | 1.0 | 3.0 | 0.00 | 0.07 | 0.07 | 77 | 1011.8 |
| 20260903205018 | 77 | 114 | 1.0 | 3.0 | 0.00 | 0.07 | 0.07 | 77 | 1011.8 |
| 20260903204019 | 77 | 119 | 0.0 | 2.0 | 0.00 | 0.07 | 0.07 | 78 | 1011.9 |
| 20260903203019 | 76 | 289 | 1.0 | 4.0 | 0.00 | 0.07 | 0.07 | 77 | 1012.0 |
| 20260903202019 | 76 | 136 | 1.0 | 4.0 | 0.00 | 0.07 | 0.07 | 77 | 1012.0 |
| 20260903201022 | 76 | 152 | 2.0 | 6.0 | 0.00 | 0.07 | 0.07 | 78 | 1012.0 |
| 20260903200019 | 76 | 323 | 1.0 | 3.0 | 0.00 | 0.07 | 0.07 | 77 | 1012.2 |
| 20260903195019 | 76 | 108 | 1.0 | 4.0 | 0.00 | 0.07 | 0.07 | 78 | 1012.4 |
| 20260903194019 | 76 | 97 | 0.0 | 3.0 | 0.00 | 0.07 | 0.07 | 79 | 1012.6 |
| 20260903193019 | 76 | 293 | 2.0 | 5.0 | 0.00 | 0.07 | 0.07 | 78 | 1012.6 |
| 20260903192017 | 74 | 121 | 1.0 | 4.0 | 0.00 | 0.07 | 0.07 | 81 | 1012.6 |
| 20260903191017 | 74 | 127 | 1.0 | 4.0 | 0.00 | 0.07 | 0.07 | 81 | 1012.6 |
| 20260903190200 | 74 | 82 | 1.0 | 3.0 | 0.00 | 0.07 | 0.07 | 82 | 1012.7 |
| 20260903185026 | 73 | 359 | 0.0 | 2.0 | 0.00 | 0.07 | 0.07 | 84 | 1012.9 |
| 20260903184026 | 73 | 153 | 1.0 | 2.0 | 0.00 | 0.07 | 0.07 | 83 | 1012.9 |
| 20260903183026 | 73 | 243 | 0.0 | 1.0 | 0.00 | 0.07 | 0.07 | 83 | 1013.3 |
| 20260903182026 | 73 | 0.0 | 0.0 | 0.00 | 0.07 | 0.07 | 84 | 1013.3 | |
| 20260903181046 | 72 | 62 | 0.0 | 1.0 | 0.00 | 0.07 | 0.07 | 85 | 1013.4 |
| 20260903180026 | 72 | 0.0 | 0.0 | 0.00 | 0.07 | 0.07 | 85 | 1013.5 | |
| 20260903175047 | 72 | 116 | 1.0 | 2.0 | 0.00 | 0.07 | 0.07 | 84 | 1013.5 |
| 20260903174027 | 71 | 96 | 1.0 | 2.0 | 0.00 | 0.07 | 0.07 | 87 | 1013.6 |
| 20260903173048 | 72 | 105 | 3.0 | 4.0 | 0.00 | 0.07 | 0.07 | 85 | 1013.6 |
| 20260903172127 | 72 | 145 | 1.0 | 3.0 | 0.00 | 0.07 | 0.07 | 84 | 1013.5 |
| 20260903171042 | 72 | 126 | 1.0 | 2.0 | 0.00 | 0.07 | 0.07 | 86 | 1013.5 |
| 20260903170028 | 71 | 333 | 1.0 | 2.0 | 0.00 | 0.07 | 0.07 | 86 | 1013.5 |
| 20260903165027 | 71 | 94 | 0.0 | 2.0 | 0.00 | 0.07 | 0.07 | 87 | 1013.5 |
| 20260903164028 | 70 | 25 | 0.0 | 1.0 | 0.00 | 0.07 | 0.07 | 87 | 1013.5 |
| 20260903163028 | 70 | 12 | 0.0 | 1.0 | 0.00 | 0.07 | 0.07 | 88 | 1013.4 |
| 20260903162028 | 71 | 340 | 1.0 | 2.0 | 0.00 | 0.07 | 0.07 | 88 | 1013.3 |
| 20260903161028 | 69 | 35 | 1.0 | 2.0 | 0.00 | 0.07 | 0.07 | 89 | 1013.4 |
| 20260903160028 | 69 | 30 | 1.0 | 2.0 | 0.00 | 0.07 | 0.07 | 91 | 1013.5 |
| 20260903155028 | 69 | 45 | 1.0 | 2.0 | 0.00 | 0.07 | 0.07 | 91 | 1013.6 |
| 20260903154028 | 68 | 155 | 1.0 | 2.0 | 0.00 | 0.07 | 0.07 | 91 | 1013.7 |
| 20260903153028 | 68 | 2 | 0.0 | 1.0 | 0.00 | 0.07 | 0.07 | 91 | 1014.0 |
| 20260903152108 | 68 | 269 | 1.0 | 2.0 | 0.00 | 0.07 | 0.07 | 92 | 1014.1 |
| 20260903151028 | 67 | 93 | 1.0 | 2.0 | 0.00 | 0.07 | 0.07 | 93 | 1014.2 |
| 20260903150029 | 66 | 247 | 0.0 | 1.0 | 0.00 | 0.07 | 0.07 | 93 | 1014.2 |
| 20260903145029 | 66 | 6 | 0.0 | 1.0 | 0.00 | 0.07 | 0.07 | 93 | 1014.3 |
| 20260903144029 | 66 | 306 | 1.0 | 3.0 | 0.00 | 0.07 | 0.07 | 93 | 1014.4 |
| 20260903143029 | 65 | 154 | 0.0 | 2.0 | 0.00 | 0.07 | 0.07 | 94 | 1014.3 |
| 20260903142030 | 65 | 189 | 1.0 | 2.0 | 0.00 | 0.07 | 0.07 | 95 | 1014.4 |
| 20260903141030 | 64 | 193 | 1.0 | 2.0 | 0.00 | 0.07 | 0.07 | 95 | 1014.5 |
| 20260903140030 | 64 | 320 | 0.0 | 1.0 | 0.00 | 0.07 | 0.07 | 95 | 1014.8 |
| 20260903135030 | 64 | 158 | 1.0 | 1.0 | 0.00 | 0.07 | 0.07 | 95 | 1014.9 |
| 20260903134030 | 64 | 262 | 0.0 | 2.0 | 0.00 | 0.07 | 0.07 | 95 | 1014.8 |
| 20260903133050 | 64 | 314 | 0.0 | 1.0 | 0.00 | 0.07 | 0.07 | 95 | 1014.7 |
| 20260903132030 | 63 | 280 | 0.0 | 1.0 | 0.00 | 0.07 | 0.07 | 95 | 1014.7 |
| 20260903131030 | 63 | 219 | 0.0 | 1.0 | 0.00 | 0.07 | 0.07 | 96 | 1014.7 |
| 20260903130030 | 63 | 192 | 0.0 | 1.0 | 0.00 | 0.07 | 0.07 | 96 | 1014.7 |
| 20260903125031 | 63 | 154 | 0.0 | 1.0 | 0.00 | 0.07 | 0.07 | 97 | 1014.9 |
| 20260903124031 | 63 | 0.0 | 0.0 | 0.00 | 0.07 | 0.07 | 97 | 1015.2 | |
| 20260903123051 | 62 | 0.0 | 0.0 | 0.00 | 0.07 | 0.07 | 97 | 1015.3 | |
| 20260903122031 | 62 | 107 | 0.0 | 1.0 | 0.00 | 0.07 | 0.07 | 97 | 1015.4 |
| 20260903121031 | 62 | 127 | 0.0 | 1.0 | 0.00 | 0.07 | 0.07 | 97 | 1015.4 |
| 20260903120031 | 62 | 132 | 0.0 | 1.0 | 0.00 | 0.07 | 0.07 | 97 | 1015.5 |
| 20260903115031 | 62 | 310 | 0.0 | 1.0 | 0.00 | 0.07 | 0.07 | 97 | 1015.6 |
| 20260903114031 | 62 | 93 | 0.0 | 1.0 | 0.00 | 0.07 | 0.07 | 97 | 1015.7 |
| 20260903113032 | 62 | 83 | 0.0 | 0.0 | 0.00 | 0.07 | 0.07 | 97 | 1015.8 |
| 20260903112032 | 62 | 267 | 0.0 | 1.0 | 0.00 | 0.07 | 0.07 | 97 | 1015.8 |
| 20260903111037 | 62 | 122 | 1.0 | 1.0 | 0.00 | 0.07 | 0.07 | 96 | 1015.6 |
| 20260903110017 | 62 | 126 | 0.0 | 1.0 | 0.01 | 0.07 | 0.07 | 96 | 1015.8 |
| 20260903105017 | 62 | 146 | 0.0 | 1.0 | 0.02 | 0.07 | 0.07 | 96 | 1015.9 |
| 20260903104038 | 62 | 106 | 2.0 | 3.0 | 0.02 | 0.07 | 0.07 | 96 | 1015.7 |
| 20260903103018 | 62 | 183 | 1.0 | 2.0 | 0.04 | 0.07 | 0.07 | 96 | 1015.8 |
| 20260903102017 | 62 | 258 | 1.0 | 2.0 | 0.05 | 0.07 | 0.07 | 96 | 1015.6 |
| 20260903101016 | 62 | 275 | 1.0 | 2.0 | 0.05 | 0.07 | 0.07 | 96 | 1015.5 |
| 20260903100018 | 62 | 100 | 1.0 | 2.0 | 0.04 | 0.05 | 0.05 | 96 | 1015.4 |
| 20260903095018 | 62 | 314 | 0.0 | 1.0 | 0.03 | 0.05 | 0.05 | 95 | 1015.6 |
| 20260903094019 | 62 | 161 | 1.0 | 2.0 | 0.03 | 0.05 | 0.05 | 95 | 1015.6 |
| 20260903093019 | 62 | 295 | 0.0 | 2.0 | 0.00 | 0.02 | 0.02 | 95 | 1015.8 |
| 20260903092018 | 62 | 292 | 0.0 | 1.0 | 0.00 | 0.02 | 0.02 | 94 | 1015.7 |
| 20260903091059 | 62 | 121 | 0.0 | 1.0 | 0.00 | 0.02 | 0.02 | 94 | 1016.0 |
| 20260903090017 | 62 | 315 | 0.0 | 1.0 | 0.02 | 0.02 | 0.02 | 94 | 1016.0 |
| 20260903085057 | 62 | 19 | 0.0 | 1.0 | 0.02 | 0.02 | 0.02 | 93 | 1015.9 |
| 20260903084018 | 62 | 88 | 0.0 | 1.0 | 0.02 | 0.02 | 0.02 | 92 | 1016.0 |
| 20260903083017 | 62 | 165 | 1.0 | 1.0 | 0.02 | 0.02 | 0.02 | 91 | 1016.1 |
| 20260903082017 | 63 | 125 | 1.0 | 2.0 | 0.02 | 0.02 | 0.02 | 89 | 1016.5 |
| 20260903081038 | 65 | 291 | 1.0 | 2.0 | 0.01 | 0.01 | 0.01 | 83 | 1016.5 |
| 20260903080018 | 65 | 132 | 1.0 | 3.0 | 0.00 | 0.00 | 0.00 | 80 | 1016.2 |
| 20260903075018 | 65 | 143 | 1.0 | 3.0 | 0.00 | 0.00 | 0.00 | 80 | 1016.2 |
| 20260903074018 | 65 | 119 | 1.0 | 2.0 | 0.00 | 0.00 | 0.00 | 80 | 1016.3 |
| 20260903073018 | 65 | 124 | 1.0 | 3.0 | 0.00 | 0.00 | 0.00 | 80 | 1016.3 |
| 20260903072018 | 65 | 124 | 1.0 | 3.0 | 0.00 | 0.00 | 0.00 | 80 | 1016.4 |
| 20260903071018 | 65 | 149 | 1.0 | 3.0 | 0.00 | 0.00 | 0.00 | 80 | 1016.6 |
| 20260903070019 | 65 | 134 | 2.0 | 4.0 | 0.00 | 0.00 | 0.00 | 80 | 1016.8 |
| 20260903065038 | 65 | 139 | 0.0 | 2.0 | 0.00 | 0.00 | 0.00 | 81 | 1017.1 |
| 20260903064019 | 65 | 149 | 1.0 | 2.0 | 0.00 | 0.00 | 0.00 | 81 | 1017.4 |
| 20260903063019 | 65 | 157 | 1.0 | 2.0 | 0.00 | 0.00 | 0.00 | 80 | 1017.6 |
| 20260903062019 | 65 | 217 | 0.0 | 2.0 | 0.00 | 0.00 | 0.00 | 81 | 1017.9 |
| 20260903061019 | 65 | 112 | 0.0 | 1.0 | 0.00 | 0.00 | 0.00 | 81 | 1017.9 |
| 20260903060019 | 65 | 130 | 1.0 | 2.0 | 0.00 | 0.00 | 0.00 | 80 | 1018.2 |
| 20260903055040 | 65 | 112 | 1.0 | 3.0 | 0.00 | 0.00 | 0.00 | 80 | 1018.4 |
| 20260903054020 | 65 | 114 | 2.0 | 5.0 | 0.00 | 0.00 | 0.00 | 81 | 1018.6 |
| 20260903053020 | 65 | 144 | 0.0 | 3.0 | 0.00 | 0.00 | 0.00 | 81 | 1018.6 |
| 20260903052020 | 65 | 177 | 1.0 | 2.0 | 0.00 | 0.00 | 0.00 | 81 | 1018.4 |
| 20260903051020 | 65 | 115 | 0.0 | 1.0 | 0.00 | 0.00 | 0.00 | 82 | 1018.4 |
| 20260903050020 | 65 | 139 | 1.0 | 1.0 | 0.00 | 0.00 | 0.00 | 82 | 1018.7 |
| 20260903045020 | 65 | 101 | 1.0 | 2.0 | 0.00 | 0.00 | 0.00 | 81 | 1019.0 |
| 20260903044020 | 65 | 138 | 1.0 | 2.0 | 0.00 | 0.00 | 0.00 | 81 | 1019.0 |
| 20260903043041 | 65 | 115 | 1.0 | 3.0 | 0.00 | 0.00 | 0.00 | 81 | 1018.9 |
| 20260903042021 | 65 | 170 | 2.0 | 3.0 | 0.00 | 0.00 | 0.00 | 81 | 1018.8 |
| 20260903041021 | 65 | 137 | 1.0 | 2.0 | 0.00 | 0.00 | 0.00 | 81 | 1018.9 |
| 20260903040021 | 65 | 68 | 0.0 | 1.0 | 0.00 | 0.00 | 0.00 | 82 | 1018.9 |
| 20260903035021 | 65 | 103 | 1.0 | 3.0 | 0.00 | 0.00 | 0.00 | 83 | 1018.7 |
| 20260903034023 | 65 | 104 | 0.0 | 2.0 | 0.00 | 0.00 | 0.00 | 84 | 1019.0 |
| 20260903033021 | 65 | 124 | 1.0 | 2.0 | 0.00 | 0.00 | 0.00 | 84 | 1019.2 |
| 20260903032021 | 65 | 144 | 0.0 | 1.0 | 0.00 | 0.00 | 0.00 | 83 | 1019.4 |
| 20260903031017 | 65 | 123 | 0.0 | 2.0 | 0.00 | 0.00 | 0.00 | 83 | 1019.4 |
| 20260903030018 | 65 | 118 | 1.0 | 2.0 | 0.00 | 0.00 | 0.00 | 83 | 1019.6 |
| 20260903025020 | 66 | 113 | 0.0 | 2.0 | 0.00 | 0.00 | 0.00 | 83 | 1019.8 |
| 20260903024018 | 66 | 130 | 1.0 | 2.0 | 0.00 | 0.00 | 0.00 | 82 | 1019.7 |
| 20260903023018 | 66 | 118 | 1.0 | 3.0 | 0.00 | 0.00 | 0.00 | 82 | 1019.7 |
| 20260903022018 | 66 | 125 | 1.0 | 3.0 | 0.00 | 0.00 | 0.00 | 81 | 1019.7 |
| 20260903021019 | 66 | 129 | 1.0 | 2.0 | 0.00 | 0.00 | 0.00 | 81 | 1019.7 |
| 20260903020018 | 65 | 130 | 1.0 | 3.0 | 0.00 | 0.00 | 0.00 | 81 | 1019.8 |
| 20260903015018 | 66 | 117 | 1.0 | 2.0 | 0.00 | 0.00 | 0.00 | 81 | 1019.9 |
| 20260903014039 | 66 | 136 | 1.0 | 3.0 | 0.00 | 0.00 | 0.00 | 80 | 1019.8 |
| 20260903013016 | 66 | 107 | 1.0 | 2.0 | 0.00 | 0.00 | 0.00 | 81 | 1019.6 |
| 20260903012019 | 66 | 101 | 0.0 | 2.0 | 0.00 | 0.00 | 0.00 | 80 | 1019.6 |
| 20260903011019 | 66 | 129 | 0.0 | 2.0 | 0.00 | 0.00 | 0.00 | 80 | 1019.8 |
| 20260903010019 | 66 | 143 | 1.0 | 3.0 | 0.00 | 0.00 | 0.00 | 79 | 1019.7 |
| 20260903005017 | 66 | 141 | 2.0 | 5.0 | 0.00 | 0.00 | 0.00 | 79 | 1019.8 |
| 20260903004016 | 66 | 123 | 0.0 | 2.0 | 0.00 | 0.00 | 0.00 | 79 | 1019.8 |
| 20260903003017 | 66 | 106 | 0.0 | 1.0 | 0.00 | 0.00 | 0.00 | 80 | 1019.9 |
| 20260903002020 | 66 | 133 | 0.0 | 3.0 | 0.00 | 0.00 | 0.00 | 82 | 1019.9 |
| 20260903001020 | 66 | 116 | 0.0 | 1.0 | 0.00 | 0.00 | 0.00 | 82 | 1020.1 |
| 20260903000040 | 66 | 43 | 0.0 | 1.0 | 0.00 | 0.00 | 0.00 | 81 | 1020.4 |
| 20260902235017 | 66 | 127 | 0.0 | 1.0 | 0.00 | 0.00 | 0.00 | 81 | 1020.5 |
| 20260902234037 | 66 | 331 | 0.0 | 1.0 | 0.00 | 0.00 | 0.00 | 79 | 1020.5 |
| 20260902233018 | 66 | 119 | 0.0 | 1.0 | 0.00 | 0.00 | 0.00 | 79 | 1020.7 |
| 20260902232020 | 67 | 129 | 1.0 | 2.0 | 0.00 | 0.00 | 0.00 | 78 | 1020.7 |
| 20260902231018 | 67 | 152 | 1.0 | 4.0 | 0.00 | 0.00 | 0.00 | 76 | 1020.7 |
| 20260902230018 | 67 | 113 | 1.0 | 3.0 | 0.00 | 0.00 | 0.00 | 76 | 1020.7 |
| 20260902225038 | 68 | 211 | 1.0 | 4.0 | 0.00 | 0.00 | 0.00 | 76 | 1020.8 |
| 20260902224018 | 68 | 127 | 1.0 | 3.0 | 0.00 | 0.00 | 0.00 | 75 | 1020.8 |
| 20260902223018 | 68 | 85 | 0.0 | 2.0 | 0.00 | 0.00 | 0.00 | 73 | 1021.1 |